Location: Unspecified
(0.0000°N, 0.0000°E)
Time: 09:50:22
(UTC+00:00)

Vanguard 3 - Pass Details

Date: 27 September 2023
Orbit: 507 x 3241 km, 33.3° (Epoch: 06 December)

Event Time Altitude Azimuth Distance (km) Brightness Sun altitude
Rises 05:24:51 0° 262° (W) 3,307 - -6.6°
Exits shadow 05:26:22 - 253° (WSW) 2,932 9.4 -6.2°
Reaches altitude 10° 05:27:40 10° 244° (WSW) 2,681 9.3 -5.9°
Maximum altitude 05:32:18 20° 198° (SSW) 2,555 9.5 -4.7°
Drops below altitude 10° 05:38:52 10° 156° (SSE) 3,975 11.0 -3.1°
Sets 05:44:28 0° 142° (SE) 5,569 12.1 -1.7°
